• In Netherlands
  • List of Countries
  • For 7 days
  • Water Temperature
  • Satellite Maps
  • Weather Map
  • Weather Widgets
  • user-avatar
    Login

    Hourly Weather Sumgayit

    Today, 28 July, Friday

    Time Temperature Precipitation Wind Pressure Humidity
    00:00 +30°C° 0 mm 1 mps 736 mmHg 44%
    01:00 +29°C° 0 mm 1 mps 735 mmHg 45%
    02:00 +29°C° 0 mm 1 mps 735 mmHg 45%
    03:00 +29°C° 0 mm 1 mps 735 mmHg 46%
    04:00 +29°C° 0 mm 1 mps 735 mmHg 45%
    05:00 +29°C° 0 mm 1 mps 736 mmHg 43%
    06:00 +30°C° 0 mm 1 mps 736 mmHg 41%
    07:00 +31°C° 0 mm 2 mps 736 mmHg 37%
    08:00 +34°C° 0 mm 3 mps 736 mmHg 34%
    09:00 +35°C° 0 mm 3 mps 736 mmHg 30%
    10:00 +36°C° 0 mm 4 mps 735 mmHg 28%
    11:00 +37°C° 0 mm 4 mps 735 mmHg 27%
    12:00 +39°C° 0 mm 5 mps 735 mmHg 25%
    13:00 +39°C° 0 mm 5 mps 735 mmHg 25%
    14:00 +39°C° 0 mm 6 mps 735 mmHg 26%
    15:00 +39°C° 0 mm 6 mps 734 mmHg 26%
    16:00 +38°C° 0 mm 6 mps 734 mmHg 29%
    17:00 +36°C° 0 mm 6 mps 734 mmHg 31%
    18:00 +35°C° 0 mm 6 mps 734 mmHg 34%
    19:00 +34°C° 0 mm 5 mps 734 mmHg 38%
    20:00 +33°C° 0 mm 4 mps 734 mmHg 42%
    21:00 +31°C° 0 mm 3 mps 734 mmHg 46%
    22:00 +30°C° 0 mm 3 mps 734 mmHg 47%
    23:00 +30°C° 0 mm 2 mps 734 mmHg 49%

    Tomorrow, 29 July, Saturday

    Time Temperature Precipitation Wind Pressure Humidity
    00:00 +30°C° 0 mm 2 mps 734 mmHg 51%
    01:00 +30°C° 0 mm 2 mps 734 mmHg 51%
    02:00 +29°C° 0 mm 2 mps 734 mmHg 50%
    03:00 +29°C° 0 mm 2 mps 734 mmHg 50%
    04:00 +29°C° 0 mm 2 mps 734 mmHg 49%
    05:00 +30°C° 0 mm 2 mps 734 mmHg 48%
    06:00 +30°C° 0 mm 2 mps 734 mmHg 46%
    07:00 +31°C° 0 mm 3 mps 734 mmHg 43%
    08:00 +33°C° 0 mm 4 mps 734 mmHg 40%
    09:00 +35°C° 0 mm 4 mps 734 mmHg 36%
    10:00 +36°C° 0 mm 4 mps 734 mmHg 35%
    11:00 +37°C° 0 mm 5 mps 734 mmHg 33%
    12:00 +39°C° 0 mm 5 mps 734 mmHg 31%
    13:00 +39°C° 0 mm 5 mps 734 mmHg 31%
    14:00 +40°C° 0 mm 5 mps 734 mmHg 31%
    15:00 +40°C° 0 mm 6 mps 733 mmHg 30%
    16:00 +39°C° 0 mm 5 mps 733 mmHg 32%
    17:00 +37°C° 0 mm 5 mps 733 mmHg 33%
    18:00 +36°C° 0 mm 4 mps 733 mmHg 34%
    19:00 +35°C° 0 mm 3 mps 733 mmHg 36%
    20:00 +34°C° 0 mm 2 mps 734 mmHg 38%
    21:00 +33°C° 0 mm 1 mps 734 mmHg 41%
    22:00 +32°C° 0 mm 2 mps 734 mmHg 41%
    23:00 +33°C° 0 mm 3 mps 735 mmHg 42%

    Day after tomorrow, 30 July, Sunday

    Time Temperature Precipitation Wind Pressure Humidity
    00:00 +33°C° 0 mm 3 mps 735 mmHg 43%
    01:00 +32°C° 0 mm 4 mps 735 mmHg 44%
    02:00 +32°C° 0 mm 6 mps 735 mmHg 45%
    03:00 +32°C° 0 mm 7 mps 736 mmHg 47%
    04:00 +32°C° 0 mm 7 mps 736 mmHg 50%
    05:00 +31°C° 0 mm 8 mps 736 mmHg 53%
    06:00 +31°C° 0 mm 9 mps 737 mmHg 55%
    07:00 +32°C° 0 mm 9 mps 737 mmHg 53%
    08:00 +33°C° 0 mm 10 mps 738 mmHg 50%
    09:00 +34°C° 0 mm 10 mps 738 mmHg 47%
    10:00 +34°C° 0 mm 10 mps 738 mmHg 45%
    11:00 +36°C° 0 mm 11 mps 738 mmHg 44%
    12:00 +36°C° 0 mm 11 mps 738 mmHg 42%
    13:00 +36°C° 0 mm 12 mps 738 mmHg 42%
    14:00 +36°C° 0 mm 12 mps 738 mmHg 42%
    15:00 +36°C° 0 mm 12 mps 738 mmHg 42%
    16:00 +34°C° 0 mm 12 mps 738 mmHg 44%
    17:00 +33°C° 0 mm 12 mps 737 mmHg 46%
    18:00 +32°C° 0 mm 12 mps 737 mmHg 47%
    19:00 +32°C° 0 mm 11 mps 738 mmHg 48%
    20:00 +31°C° 0 mm 11 mps 738 mmHg 48%
    21:00 +31°C° 0 mm 10 mps 739 mmHg 48%
    22:00 +31°C° 0 mm 9 mps 739 mmHg 47%
    23:00 +31°C° 0 mm 9 mps 739 mmHg 47%

    31 July, Monday

    Time Temperature Precipitation Wind Pressure Humidity
    00:00 +31°C° 0 mm 8 mps 739 mmHg 46%
    01:00 +29°C° 0 mm 8 mps 739 mmHg 46%
    02:00 +29°C° 0 mm 7 mps 739 mmHg 46%
    03:00 +29°C° 0 mm 7 mps 739 mmHg 46%
    04:00 +29°C° 0 mm 7 mps 739 mmHg 46%
    05:00 +29°C° 0 mm 6 mps 739 mmHg 46%
    06:00 +29°C° 0 mm 6 mps 740 mmHg 46%
    07:00 +30°C° 0 mm 7 mps 740 mmHg 43%
    08:00 +32°C° 0 mm 7 mps 740 mmHg 40%
    09:00 +33°C° 0 mm 8 mps 740 mmHg 37%
    10:00 +34°C° 0 mm 8 mps 740 mmHg 37%
    11:00 +35°C° 0 mm 8 mps 740 mmHg 36%
    12:00 +35°C° 0 mm 8 mps 740 mmHg 36%
    13:00 +35°C° 0 mm 8 mps 740 mmHg 36%
    14:00 +35°C° 0 mm 8 mps 739 mmHg 37%
    15:00 +35°C° 0 mm 8 mps 739 mmHg 37%
    16:00 +34°C° 0 mm 8 mps 739 mmHg 40%
    17:00 +33°C° 0 mm 8 mps 739 mmHg 43%
    18:00 +32°C° 0 mm 8 mps 739 mmHg 45%
    19:00 +31°C° 0 mm 8 mps 739 mmHg 48%
    20:00 +31°C° 0 mm 8 mps 740 mmHg 50%
    21:00 +29°C° 0 mm 8 mps 740 mmHg 52%
    22:00 +29°C° 0 mm 7 mps 740 mmHg 51%
    23:00 +29°C° 0 mm 7 mps 740 mmHg 51%

    1 August, Tuesday

    Time Temperature Precipitation Wind Pressure Humidity
    00:00 +28°C° 0 mm 6 mps 740 mmHg 50%
    01:00 +28°C° 0 mm 6 mps 740 mmHg 50%
    02:00 +28°C° 0 mm 5 mps 740 mmHg 50%
    03:00 +28°C° 0 mm 5 mps 740 mmHg 50%
    04:00 +28°C° 0 mm 5 mps 741 mmHg 49%
    05:00 +28°C° 0 mm 5 mps 741 mmHg 49%
    06:00 +28°C° 0 mm 5 mps 741 mmHg 49%
    07:00 +29°C° 0 mm 5 mps 742 mmHg 46%
    08:00 +30°C° 0 mm 5 mps 742 mmHg 43%
    09:00 +33°C° 0 mm 6 mps 742 mmHg 40%
    10:00 +33°C° 0 mm 6 mps 742 mmHg 39%
    11:00 +34°C° 0 mm 6 mps 742 mmHg 37%
    12:00 +34°C° 0 mm 6 mps 742 mmHg 36%
    13:00 +34°C° 0 mm 6 mps 741 mmHg 37%
    14:00 +34°C° 0 mm 6 mps 741 mmHg 38%
    15:00 +34°C° 0 mm 6 mps 741 mmHg 39%
    16:00 +33°C° 0 mm 6 mps 741 mmHg 42%
    17:00 +32°C° 0 mm 6 mps 741 mmHg 46%
    18:00 +32°C° 0 mm 6 mps 741 mmHg 50%
    19:00 +30°C° 0 mm 6 mps 741 mmHg 52%
    20:00 +29°C° 0 mm 6 mps 742 mmHg 55%
    21:00 +28°C° 0 mm 5 mps 742 mmHg 58%
    22:00 +28°C° 0 mm 5 mps 742 mmHg 58%
    23:00 +28°C° 0 mm 4 mps 742 mmHg 58%

    2 August, Wednesday

    Time Temperature Precipitation Wind Pressure Humidity
    00:00 +28°C° 0 mm 4 mps 742 mmHg 58%
    01:00 +28°C° 0 mm 4 mps 742 mmHg 58%
    02:00 +27°C° 0 mm 3 mps 742 mmHg 58%
    03:00 +27°C° 0 mm 2 mps 741 mmHg 58%
    04:00 +27°C° 0 mm 2 mps 742 mmHg 57%
    05:00 +27°C° 0 mm 2 mps 742 mmHg 56%
    06:00 +28°C° 0 mm 1 mps 742 mmHg 55%
    07:00 +29°C° 0 mm 1 mps 742 mmHg 50%
    08:00 +30°C° 0 mm 1 mps 742 mmHg 45%
    09:00 +31°C° 0 mm 1 mps 742 mmHg 39%
    10:00 +32°C° 0 mm 1 mps 742 mmHg 36%
    11:00 +34°C° 0 mm 2 mps 742 mmHg 33%
    12:00 +34°C° 0 mm 3 mps 742 mmHg 30%
    13:00 +35°C° 0 mm 3 mps 741 mmHg 30%
    14:00 +35°C° 0 mm 4 mps 741 mmHg 30%
    15:00 +35°C° 0 mm 5 mps 741 mmHg 30%
    16:00 +34°C° 0 mm 5 mps 741 mmHg 32%
    17:00 +33°C° 0 mm 5 mps 741 mmHg 33%
    18:00 +32°C° 0 mm 4 mps 740 mmHg 35%
    19:00 +32°C° 0 mm 4 mps 740 mmHg 38%
    20:00 +30°C° 0 mm 3 mps 741 mmHg 40%
    21:00 +29°C° 0 mm 2 mps 741 mmHg 43%
    22:00 +29°C° 0 mm 2 mps 741 mmHg 45%
    23:00 +28°C° 0 mm 2 mps 740 mmHg 47%
    Show more